Location: *
(46.1200°N, 11.2700°E)
Time: 15:49:48
(UTC+00:00)

Cosmos 1933 Rocket - Pass Details

Date: 02 March 2021
Orbit: 607 x 630 km, 82.5° (Epoch: 19 April)

Event Time Altitude Azimuth Distance (km) Brightness Sun altitude
Rises 18:38:52 0° 189° (S) 2,857 7.0 -17.4°
Reaches altitude 10° 18:41:04 10° 190° (S) 1,960 6.1 -17.8°
Maximum altitude 18:45:25 85° 280° (W) 623 3.5 -18.5°
Drops below altitude 10° 18:49:49 10° 8° (N) 1,989 6.2 -19.3°
Sets 18:52:04 0° 9° (N) 2,904 7.0 -19.7°
